星链-32851 (STARLINK-32851)

导读

STARLINK-32851是美国SpaceX公司星链(Starlink)项目的卫星,于2025年1月24日发射入轨,是该批次星链组网卫星成员之一。作为星链星座的组成部分,它运行在近地轨道,旨在为全球偏远地区提供低延迟、高速宽带互联网服务,属于SpaceX大规模卫星互联网组网计划的一部分,助力星链完成全球覆盖的部署目标。

Basic Information
目录编号:
62810
目录名称:
STARLINK-32851
国际标识:
2025-018E
轨道中心:
EARTH
卫星名称:
星链-32851
卫星全名:
星链-32851 (STARLINK-32851)
卫星状态:
在轨 (已飞行506 天)
发射日期:
2025-01-24 UTC
国别 :
美国 (US)
星等 :
--
Orbit Information
数据来源 国际轨道数据 AOE轨道数据
星历时间 2026-06-14T04:40:48+0800
13小时前
查看轨道信息
2026-06-12T04:00:00+0800
2天前
查看轨道信息
半长轴 6853.341km 6853.355km
偏心率 0.0001354 0.0001218
轨道倾角 53.157° 53.159°
近地点辐角 81.637° 76.948°
升交点赤经 222.828° 232.251°
平近点角 278.479° 263.486°
近地点 474.276km 474.383km
远地点 476.132km 476.053km
周期 94.105分钟 94.105分钟
每日圈数 15.30204 15.301993
Detailed Information
固有亮度:
5
最大亮度:
2.5
卫星平台:
Starlink V1.0
覆盖范围:
全球
运营商:
太空探索技术公司
运营商所在国:
美国
制造商(研发单位):
太空探索技术公司
制造商所在国:
美国
使用方式:
暂无
Satellite Introduction
Starlink 计划是 SpaceX 推出的全球卫星互联网项目,通过发射低轨道卫星,为全球尤其是偏远地区提供高速、低延迟的互联网服务。自 2019 年起,Starlink 已部署数千颗卫星,旨在缩小全球数字鸿沟,推动互联网普及。该项目还为军事、航空等行业提供通信支持,带来广泛经济效益。
2D Orbit Map
3D Orbit Map
Orbit Altitude Analysis Chart
Orbit Inclination Analysis Chart
Orbit Comprehensive Analysis Chart
View Comprehensive Chart